カタログに戻る

KINEIS-3C

運用中通信SSO
NORAD 61220·PAYLOAD·🇫🇷 France

打ち上げ Sep 20, 2024 から Rocket Lab Launch Complex 1

Loading…

次のパス (今後24時間)

TLE

最新Source: Space-Track

元期: Sep 14, 2026, 05:42 UTC

1 61220U 24172A   26257.23793449  .00001311  00000-0  21516-3 0  9994
2 61220  98.0411 346.1822 0001198 164.0326 196.0920 14.72318763106177

AllMySatでKINEIS-3Cをリアルタイム追跡

Download on the App Store